Location: Fort Wayne
(41.1310°N, 85.1290°W)
Time: 06:49:56
(UTC-04:00)

Amateur Radio Satellites - All Passes

Search period start: 30 August 2016 06:19
Search period end: 31 August 2016 06:19
Location: Fort Wayne, 41.1310°N, 85.1290°W

Satellite Date Start Highest point End Downlink Frequencies (MHz)
Time Altitude Azimuth
CUBESAT XI-V 30 Aug 06:23:33 06:28:05 60° 259° (W) 06:32:41 437.345
AO-85 30 Aug 06:26:26 06:31:37 54° 306° (NW) 06:36:31 145.980
PHONESAT 2.4 30 Aug 06:27:49 06:30:21 25° 204° (SSW) 06:32:53 2401.200-2431.200
Cosmos 2504 30 Aug 06:29:43 06:33:08 13° 77° (ENE) 06:36:26 435.465 / 435.565
GOMX 1 30 Aug 06:35:04 06:36:50 12° 86° (E) 06:38:34 467.674
STARS 30 Aug 06:39:18 06:41:28 13° 269° (W) 06:43:38 437.465
Cosmos 2491 30 Aug 06:39:59 06:48:48 75° 266° (W) 06:57:35 435.465 / 435.565
AO-7 30 Aug 06:41:51 06:49:36 45° 298° (WNW) 06:57:19 29.400- 29.500
RS-15 30 Aug 07:06:16 07:15:18 23° 4° (N) 07:24:28 29.354- 29.394
BRITE-PL 30 Aug 07:09:51 07:15:30 59° 99° (E) 07:20:56 437.365/2234.400
STRAND 1 30 Aug 07:11:48 07:15:59 26° 66° (ENE) 07:20:10 437.568
HORYU 2 30 Aug 07:21:27 07:25:41 46° 288° (WNW) 07:29:54 437.375
NOAA 18 30 Aug 07:24:00 07:28:41 28° 96° (E) 07:33:18 137.9125
SO-50 30 Aug 07:39:56 07:43:28 21° 43° (NE) 07:46:54 436.795
Cubesat XI-IV 30 Aug 07:49:32 07:54:47 56° 101° (E) 07:59:59 437.490
YUBILEINY 30 Aug 07:52:10 08:00:54 64° 282° (WNW) 08:09:41 435.215
LilacSat-2 30 Aug 07:52:25 07:56:12 68° 102° (ESE) 07:59:55 437.200
NOAA 15 30 Aug 07:52:42 07:58:03 77° 103° (ESE) 08:03:22 137.62
CUTE-I 30 Aug 08:00:27 08:05:47 71° 103° (ESE) 08:11:05 437.470
DOVE 4 30 Aug 08:03:19 08:07:57 37° 96° (E) 08:12:17 437.250
GOMX 1 30 Aug 08:10:13 08:15:38 84° 284° (WNW) 08:20:43 467.674
AO-85 30 Aug 08:11:39 08:13:06 11° 325° (NW) 08:14:32 145.980
Cosmos 2504 30 Aug 08:16:52 08:25:15 77° 95° (E) 08:33:04 435.465 / 435.565
ISS 30 Aug 08:17:50 08:20:46 31° 136° (SE) 08:23:44 145.825
CANX-2 30 Aug 08:23:28 08:25:10 12° 90° (E) 08:26:53 2200.000
CINEMA 3 30 Aug 08:25:08 08:27:44 15° 90° (E) 08:30:16 145.822/145.860
CUTE 1.7 + AOD 2 30 Aug 08:29:01 08:30:42 12° 90° (E) 08:32:24 437.475
AO-7 30 Aug 08:39:34 08:40:14 10° 320° (NW) 08:40:54 29.400- 29.500
Cosmos 2491 30 Aug 08:40:13 08:43:59 13° 286° (WNW) 08:47:46 435.465 / 435.565
AIST 1 30 Aug 08:46:41 08:47:45 11° 83° (E) 08:48:48
BRITE-PL 30 Aug 08:49:17 08:53:26 21° 297° (WNW) 08:57:31 437.365/2234.400
STRAND 1 30 Aug 08:50:15 08:54:58 38° 262° (W) 08:59:42 437.568
NOAA 18 30 Aug 09:04:22 09:09:24 38° 292° (WNW) 09:14:23 137.9125
SO-50 30 Aug 09:19:47 09:24:16 53° 242° (WSW) 09:28:36 436.795
CUSAT 1 30 Aug 09:20:57 09:24:54 16° 66° (ENE) 09:29:10 437.405
RS-15 30 Aug 09:21:13 09:32:38 40° 38° (NE) 09:43:56 29.354- 29.394
SEEDS 30 Aug 09:29:53 09:33:53 41° 98° (E) 09:37:52 437.485
Cubesat XI-IV 30 Aug 09:30:39 09:34:25 20° 298° (WNW) 09:38:08 437.490
NOAA 15 30 Aug 09:34:15 09:37:09 15° 300° (WNW) 09:40:03 137.62
HO-68 30 Aug 09:38:05 09:45:15 68° 103° (ESE) 09:52:21 435.675
PRISM 30 Aug 09:38:43 09:42:49 88° 73° (ENE) 09:46:58 437.425
DOVE 4 30 Aug 09:41:24 09:45:23 24° 294° (WNW) 09:49:12 437.250
CUTE-I 30 Aug 09:42:06 09:45:13 16° 300° (WNW) 09:48:19 437.470
UNISAT 6 30 Aug 09:46:26 09:48:10 12° 62° (ENE) 09:49:53 437.425
GOMX 1 30 Aug 09:50:54 09:52:45 12° 302° (WNW) 09:54:34 467.674
UWE-3 30 Aug 09:51:31 09:54:52 23° 94° (E) 09:58:11 435.000/436.395/437.385
AAUSAT CUBESAT 2 30 Aug 09:52:48 09:56:45 40° 98° (E) 10:00:41 437.432
ISS 30 Aug 09:54:11 09:57:13 33° 333° (NNW) 10:00:15 145.825
YUBILEINY 30 Aug 09:56:23 09:59:44 12° 304° (NW) 10:03:05 435.215
CANX-2 30 Aug 09:57:12 10:01:22 56° 286° (WNW) 10:05:31 2200.000
CUBEBUG 2 30 Aug 09:59:28 10:03:31 44° 98° (E) 10:07:28 437.445
ZACube-1 30 Aug 09:59:55 10:02:49 18° 93° (E) 10:05:42 437.345
BEESAT 2 30 Aug 10:00:04 10:03:38 34° 115° (ESE) 10:07:16 435.950
CINEMA 3 30 Aug 10:00:54 10:05:12 46° 288° (WNW) 10:09:17 145.822/145.860
CUTE 1.7 + AOD 2 30 Aug 10:02:43 10:06:53 56° 286° (WNW) 10:11:03 437.475
COMPASS 1 30 Aug 10:03:35 10:07:47 71° 101° (ESE) 10:11:57 437.405
BEESAT 3 30 Aug 10:11:57 10:15:51 85° 302° (WNW) 10:19:49 437.485
Cosmos 2504 30 Aug 10:13:19 10:19:21 22° 293° (WNW) 10:25:07 435.465 / 435.565
AIST 1 30 Aug 10:20:25 10:24:43 62° 280° (W) 10:29:05
ANTELSAT 30 Aug 10:20:53 10:24:42 27° 68° (ENE) 10:28:27 437.575/2403.000
DANDE 30 Aug 10:43:28 10:48:13 25° 74° (ENE) 10:53:55 436.750
TIGRISAT 30 Aug 10:50:15 10:54:41 51° 73° (ENE) 10:59:02 435.000
Oscar 11 30 Aug 11:00:24 11:04:44 88° 284° (WNW) 11:09:04 145.826/435.025
CUSAT 1 30 Aug 11:00:48 11:07:34 81° 81° (E) 11:15:28 437.405
SEEDS 30 Aug 11:06:30 11:09:15 17° 294° (WNW) 11:12:01 437.485
DELFI C3 30 Aug 11:07:09 11:11:01 43° 99° (E) 11:14:50 145.870
FUNcube-1 30 Aug 11:11:58 11:16:06 70° 284° (WNW) 11:20:12 145.935
Cosmos 2499 30 Aug 11:18:34 11:21:47 13° 78° (ENE) 11:24:56 435.465 / 435.565
QB50P1 30 Aug 11:18:58 11:21:35 16° 65° (ENE) 11:24:13 145.935-145.965
UNISAT 6 30 Aug 11:19:43 11:24:18 73° 258° (WSW) 11:28:49 437.425
JAS-2 30 Aug 11:24:26 11:26:36 12° 55° (NE) 11:28:49 435.910
HO-68 30 Aug 11:26:49 11:32:21 25° 302° (WNW) 11:37:52 435.675
UWE-3 30 Aug 11:27:46 11:31:19 27° 291° (WNW) 11:34:49 435.000/436.395/437.385
POPSAT HIP 1 30 Aug 11:28:43 11:31:49 20° 66° (ENE) 11:34:56 437.405
AAUSAT CUBESAT 2 30 Aug 11:29:11 11:31:55 17° 294° (WNW) 11:34:39 437.432
ISS 30 Aug 11:32:35 11:34:26 14° 353° (N) 11:36:17 145.825
RS-15 30 Aug 11:33:59 11:46:19 76° 243° (WSW) 11:58:22 29.354- 29.394
ZACube-1 30 Aug 11:35:27 11:39:13 35° 289° (WNW) 11:42:58 437.345
CUBEBUG 2 30 Aug 11:37:14 11:39:45 16° 295° (WNW) 11:42:16 437.445
BEESAT 2 30 Aug 11:38:22 11:41:32 23° 313° (NW) 11:44:45 435.950
COMPASS 1 30 Aug 11:41:47 11:42:45 11° 298° (WNW) 11:43:42 437.405
ESTCUBE 1 30 Aug 11:50:37 11:51:14 10° 89° (E) 11:51:52 437.505/2401.250
DUCHIFAT 1 30 Aug 11:52:06 11:55:51 31° 70° (ENE) 11:59:36 145.980
BEESAT 3 30 Aug 11:53:00 11:54:10 11° 321° (NW) 11:55:19 437.485
HUMSAT D 30 Aug 11:55:33 11:59:39 77° 103° (ESE) 12:03:45 437.325/437.525
ANTELSAT 30 Aug 11:57:18 12:01:18 29° 264° (W) 12:05:15 437.575/2403.000
QB50P2 30 Aug 11:58:45 12:02:49 44° 73° (ENE) 12:06:54 145.880/145.840
POLYITAN 1 30 Aug 12:01:14 12:05:19 45° 72° (ENE) 12:09:25 437.675
PCSat 30 Aug 12:01:56 12:07:13 56° 114° (ESE) 12:12:31 145.827
NANOSAT C BR1 30 Aug 12:06:59 12:11:06 49° 73° (ENE) 12:15:13 145.865
GONETS M04 30 Aug 12:08:24 12:16:30 45° 87° (E) 12:24:41
DANDE 30 Aug 12:25:23 12:31:01 54° 264° (W) 12:38:12 436.750
CUBEBUG 1 30 Aug 12:25:54 12:28:45 17° 92° (E) 12:31:36 437.445
TIGRISAT 30 Aug 12:28:55 12:31:37 15° 268° (W) 12:34:17 435.000
VELOX 1 30 Aug 12:31:50 12:34:30 15° 92° (E) 12:37:09 145.980
BUGSAT 1 30 Aug 12:34:39 12:38:36 39° 71° (ENE) 12:42:35 437.445
AIST 2 30 Aug 12:36:02 12:40:04 66° 120° (ESE) 12:44:11 435.215
DX 1 30 Aug 12:39:46 12:41:28 12° 91° (E) 12:43:10 434.975-435.025
50 SAT 30 Aug 12:42:03 12:44:32 17° 94° (E) 12:47:01 437.505
DELFI C3 30 Aug 12:43:12 12:45:29 15° 295° (WNW) 12:47:46 145.870
CUSAT 1 30 Aug 12:44:20 12:49:05 20° 274° (W) 12:54:15 437.405
QB50P1 30 Aug 12:52:52 12:56:59 46° 261° (W) 13:01:07 145.935-145.965
POPSAT HIP 1 30 Aug 13:03:24 13:07:21 36° 262° (W) 13:11:19 437.405
JAS-2 30 Aug 13:05:30 13:10:43 89° 256° (WSW) 13:16:23 435.910
Cosmos 2499 30 Aug 13:05:38 13:13:44 79° 95° (E) 13:21:16 435.465 / 435.565
ISS 30 Aug 13:09:43 13:11:55 16° 13° (NNE) 13:14:05 145.825
AUBIESAT-1 30 Aug 13:09:44 13:13:43 75° 107° (ESE) 13:17:22 437.475
O/OREOS (USA 219) 30 Aug 13:12:07 13:14:14 13° 98° (E) 13:16:21 437.305
UKube-1 30 Aug 13:13:02 13:16:24 22° 95° (E) 13:19:46 .
Gurwin Techsat 1B 30 Aug 13:17:38 13:19:42 12° 58° (ENE) 13:21:45 435.225
M-CUBED/EXP-1 PRIME 30 Aug 13:18:07 13:22:09 69° 291° (WNW) 13:25:51 437.505
AO-85 30 Aug 13:19:16 13:22:07 17° 41° (NE) 13:24:50 145.980
Oscar 19 30 Aug 13:19:46 13:24:00 26° 66° (ENE) 13:28:16 437.125/150
AISAT 30 Aug 13:19:48 13:24:12 54° 100° (E) 13:28:32 437.250
ESTCUBE 1 30 Aug 13:23:59 13:28:32 75° 285° (WNW) 13:33:04 437.505/2401.250
DUCHIFAT 1 30 Aug 13:28:14 13:31:33 22° 265° (W) 13:34:53 145.980
QB50P2 30 Aug 13:36:16 13:38:50 16° 268° (W) 13:41:25 145.880/145.840
POLYITAN 1 30 Aug 13:38:49 13:41:21 15° 268° (W) 13:43:53 437.675
NANOSAT C BR1 30 Aug 13:44:48 13:47:05 14° 269° (W) 13:49:22 145.865
PCSat 30 Aug 13:46:37 13:50:57 24° 313° (NW) 13:55:19 145.827
RS-15 30 Aug 13:49:28 13:56:35 18° 264° (W) 14:03:38 29.354- 29.394
CUBEBUG 1 30 Aug 14:01:02 14:05:15 44° 288° (WNW) 14:09:26 437.445
AO-7 30 Aug 14:01:13 14:04:45 13° 44° (NE) 14:08:16 29.400- 29.500
SPROUT 30 Aug 14:04:07 14:08:24 84° 100° (E) 14:12:40 437.525
GONETS M04 30 Aug 14:05:14 14:13:20 41° 287° (WNW) 14:21:33
VELOX 1 30 Aug 14:06:55 14:11:14 48° 288° (WNW) 14:15:30 145.980
BUGSAT 1 30 Aug 14:11:16 14:14:08 17° 267° (W) 14:16:59 437.445
TISAT 1 30 Aug 14:12:47 14:15:59 21° 94° (E) 14:19:08 437.305
DX 1 30 Aug 14:13:42 14:18:03 61° 287° (WNW) 14:22:20 434.975-435.025
50 SAT 30 Aug 14:14:58 14:18:09 28° 289° (WNW) 14:21:20 437.505
AIST 2 30 Aug 14:16:29 14:18:59 15° 318° (NW) 14:21:30 435.215
ITAMSAT 1 30 Aug 14:41:05 14:44:58 22° 64° (ENE) 14:48:51 435.822/435.867
ISS 30 Aug 14:45:41 14:48:56 55° 32° (NNE) 14:52:09 145.825
UKube-1 30 Aug 14:48:36 14:52:30 32° 290° (WNW) 14:56:21 .
O/OREOS (USA 219) 30 Aug 14:48:39 14:53:04 57° 295° (WNW) 14:57:33 437.305
Gurwin Techsat 1B 30 Aug 14:53:31 14:58:50 88° 73° (ENE) 15:04:11 435.225
AISAT 30 Aug 14:57:38 15:00:13 15° 297° (WNW) 15:02:45 437.250
Oscar 19 30 Aug 14:58:20 15:03:08 39° 262° (W) 15:07:59 437.125/150
AO-85 30 Aug 14:58:50 15:02:59 57° 242° (WSW) 15:06:51 145.980
Cosmos 2499 30 Aug 15:02:07 15:07:35 20° 294° (WNW) 15:12:52 435.465 / 435.565
SWISSCUBE 30 Aug 15:12:38 15:16:13 21° 94° (E) 15:19:47 437.505
BEESAT 30 Aug 15:29:02 15:33:06 27° 96° (E) 15:37:08 436.000
AO-7 30 Aug 15:47:39 15:55:45 57° 65° (ENE) 16:03:50 29.400- 29.500
TISAT 1 30 Aug 15:47:56 15:51:40 32° 290° (WNW) 15:55:22 437.305
YUBILEINY 30 Aug 16:08:46 16:12:23 13° 56° (ENE) 16:15:58 435.215
ITUPSAT 1 30 Aug 16:18:05 16:22:53 85° 104° (ESE) 16:27:40 437.325
ITAMSAT 1 30 Aug 16:19:06 16:24:06 48° 260° (W) 16:29:06 435.822/435.867
ISS 30 Aug 16:22:55 16:25:06 17° 228° (SW) 16:27:17 145.825
KKS-1 30 Aug 16:25:31 16:26:26 11° 90° (E) 16:27:23 437.445
Gurwin Techsat 1B 30 Aug 16:38:09 16:39:27 11° 272° (W) 16:40:45 435.225
HORYU 2 30 Aug 16:44:29 16:47:11 16° 64° (ENE) 16:49:55 437.375
SWISSCUBE 30 Aug 16:49:41 16:54:09 41° 290° (WNW) 16:58:36 437.505
MOZHAYETS 4 30 Aug 16:51:36 16:55:37 30° 96° (E) 16:59:38
BEESAT 30 Aug 17:06:40 17:10:51 31° 292° (WNW) 17:15:02 436.000
Cubesat XI-IV 30 Aug 17:35:16 17:37:30 13° 58° (ENE) 17:39:43 437.490
NOAA 15 30 Aug 17:35:39 17:38:49 16° 61° (ENE) 17:42:01 137.62
AO-7 30 Aug 17:41:33 17:48:49 33° 263° (W) 17:56:08 29.400- 29.500
GOMX 1 30 Aug 17:42:27 17:45:07 14° 60° (ENE) 17:47:49 467.674
CUTE-I 30 Aug 17:45:04 17:48:10 16° 60° (ENE) 17:51:15 437.470
Cosmos 2491 30 Aug 17:46:18 17:53:10 27° 81° (E) 18:00:02 435.465 / 435.565
ITUPSAT 1 30 Aug 17:58:32 18:00:01 11° 301° (WNW) 18:01:29 437.325
KKS-1 30 Aug 17:59:01 18:03:28 70° 286° (WNW) 18:07:53 437.445
YUBILEINY 30 Aug 18:02:24 18:11:09 66° 79° (E) 18:19:47 435.215
Cosmos 2504 30 Aug 18:10:32 18:16:13 24° 68° (ENE) 18:21:49 435.465 / 435.565
BEESAT 2 30 Aug 18:18:05 18:21:19 23° 47° (NE) 18:24:33 435.950
HORYU 2 30 Aug 18:19:00 18:23:20 51° 260° (W) 18:27:41 437.375
BRITE-PL 30 Aug 18:20:07 18:24:59 61° 73° (ENE) 18:30:17 437.365/2234.400
CUBESAT XI-V 30 Aug 18:20:12 18:24:28 33° 97° (E) 18:28:44 437.345
STARS 30 Aug 18:25:59 18:30:23 73° 285° (WNW) 18:34:44 437.465
MOZHAYETS 4 30 Aug 18:28:52 18:32:41 27° 292° (WNW) 18:36:30
BEESAT 3 30 Aug 18:29:10 18:33:04 52° 55° (NE) 18:36:55 437.485
LilacSat-2 30 Aug 18:34:19 18:37:45 32° 71° (ENE) 18:41:10 437.200
NOAA 18 30 Aug 18:49:55 18:55:18 54° 71° (ENE) 19:00:41 137.9125
DOVE 4 30 Aug 19:07:39 19:12:28 39° 70° (ENE) 19:17:24 437.250
Cubesat XI-IV 30 Aug 19:11:26 19:16:47 90° 74° (ENE) 19:22:09 437.490
NOAA 15 30 Aug 19:12:47 19:18:00 69° 258° (WSW) 19:23:17 137.62
GOMX 1 30 Aug 19:17:12 19:22:21 83° 257° (WSW) 19:27:49 467.674
CUTE-I 30 Aug 19:22:16 19:27:35 72° 257° (WSW) 19:32:55 437.470
CINEMA 3 30 Aug 19:26:09 19:29:26 18° 65° (ENE) 19:32:42 145.822/145.860
Cosmos 2491 30 Aug 19:40:37 19:49:14 65° 281° (W) 19:57:59 435.465 / 435.565
BEESAT 2 30 Aug 19:55:34 19:59:13 35° 244° (WSW) 20:02:52 435.950
CUBESAT XI-V 30 Aug 19:57:50 20:01:41 25° 293° (WNW) 20:05:32 437.345
YUBILEINY 30 Aug 20:00:22 20:07:10 26° 279° (W) 20:13:56 435.215
BRITE-PL 30 Aug 20:00:58 20:03:58 16° 272° (W) 20:07:07 437.365/2234.400
Cosmos 2504 30 Aug 20:03:02 20:10:04 59° 268° (W) 20:17:05 435.465 / 435.565
HO-68 30 Aug 20:06:18 20:13:09 50° 66° (ENE) 20:20:01 435.675
BEESAT 3 30 Aug 20:08:18 20:10:16 13° 251° (WSW) 20:12:15 437.485
LilacSat-2 30 Aug 20:09:34 20:12:07 17° 267° (W) 20:14:41 437.200
SEEDS 30 Aug 20:21:40 20:25:13 28° 70° (ENE) 20:28:48 437.485
AIST 1 30 Aug 20:27:42 20:31:37 30° 75° (ENE) 20:35:29
NOAA 18 30 Aug 20:32:16 20:36:16 20° 267° (W) 20:40:17 137.9125
AAUSAT CUBESAT 2 30 Aug 20:43:09 20:46:35 26° 69° (ENE) 20:50:03 437.432
DOVE 4 30 Aug 20:45:53 20:50:13 26° 267° (W) 20:54:40 437.250
UWE-3 30 Aug 20:48:25 20:51:50 21° 67° (ENE) 20:55:12 435.000/436.395/437.385
CANX-2 30 Aug 20:49:25 20:53:37 83° 260° (W) 20:57:50 2200.000
PCSat 30 Aug 20:49:51 20:55:03 44° 55° (NE) 21:00:13 145.827
COMPASS 1 30 Aug 20:54:04 20:57:59 44° 73° (ENE) 21:01:56 437.405
CUTE 1.7 + AOD 2 30 Aug 20:54:50 20:59:01 83° 255° (WSW) 21:03:15 437.475
ZACube-1 30 Aug 20:56:02 20:58:47 16° 65° (ENE) 21:01:30 437.345
Cubesat XI-IV 30 Aug 20:56:27 20:57:32 11° 272° (W) 20:58:37 437.490
CUBEBUG 2 30 Aug 20:56:57 21:01:15 39° 72° (ENE) 21:05:28 437.445
AIST 2 30 Aug 20:57:24 21:01:23 42° 52° (NE) 21:05:22 435.215
STRAND 1 30 Aug 21:00:12 21:05:19 74° 103° (ESE) 21:10:25 437.568
CINEMA 3 30 Aug 21:01:12 21:06:08 57° 260° (W) 21:11:00 145.822/145.860
PRISM 30 Aug 21:22:13 21:23:54 12° 91° (E) 21:25:35 437.425
Cosmos 2491 30 Aug 21:44:42 21:48:06 12° 304° (NW) 21:51:31 435.465 / 435.565
DELFI C3 30 Aug 21:53:14 21:56:28 25° 69° (ENE) 21:59:43 145.870
Oscar 11 30 Aug 21:54:42 21:58:57 68° 76° (ENE) 22:03:15 145.826/435.025
HO-68 30 Aug 21:54:47 22:01:03 32° 264° (W) 22:07:21 435.675
SEEDS 30 Aug 21:57:35 22:00:54 23° 266° (W) 22:04:15 437.485
AIST 1 30 Aug 22:05:38 22:09:01 22° 272° (W) 22:12:21
FUNcube-1 30 Aug 22:06:45 22:11:11 87° 77° (ENE) 22:15:31 145.935
AAUSAT CUBESAT 2 30 Aug 22:18:41 22:22:01 24° 265° (W) 22:25:23 437.432
GONETS M04 30 Aug 22:19:06 22:25:37 22° 64° (ENE) 22:32:05
AUBIESAT-1 30 Aug 22:23:31 22:25:09 12° 56° (NE) 22:26:46 437.475
UWE-3 30 Aug 22:23:52 22:28:04 36° 262° (W) 22:32:12 435.000/436.395/437.385
ZACube-1 30 Aug 22:30:26 22:34:43 47° 261° (W) 22:38:55 437.345
M-CUBED/EXP-1 PRIME 30 Aug 22:30:41 22:33:42 17° 59° (ENE) 22:36:42 437.505
COMPASS 1 30 Aug 22:31:31 22:33:46 14° 269° (W) 22:36:03 437.405
PCSat 30 Aug 22:33:44 22:38:11 26° 252° (WSW) 22:42:36 145.827
CUBEBUG 2 30 Aug 22:34:30 22:37:58 21° 266° (W) 22:41:24 437.445
AIST 2 30 Aug 22:36:37 22:39:34 19° 249° (WSW) 22:42:31 435.215
STRAND 1 30 Aug 22:41:08 22:43:52 15° 300° (WNW) 22:46:35 437.568
HUMSAT D 30 Aug 22:46:27 22:50:27 50° 74° (ENE) 22:54:27 437.325/437.525
ESTCUBE 1 30 Aug 22:50:38 22:51:28 10° 60° (ENE) 22:52:17 437.505/2401.250
PRISM 30 Aug 22:55:26 22:59:32 55° 286° (WNW) 23:03:36 437.425
Cosmos 2499 30 Aug 22:57:30 23:03:05 24° 69° (ENE) 23:08:42 435.465 / 435.565
UNISAT 6 30 Aug 23:12:13 23:15:34 22° 94° (E) 23:18:51 437.425
O/OREOS (USA 219) 30 Aug 23:19:45 23:23:41 27° 59° (ENE) 23:27:38 437.305
CUBEBUG 1 30 Aug 23:22:23 23:24:52 15° 63° (ENE) 23:27:22 437.445
DELFI C3 30 Aug 23:28:05 23:31:14 23° 265° (W) 23:34:27 145.870
VELOX 1 30 Aug 23:29:34 23:32:04 15° 63° (ENE) 23:34:33 145.980
SO-50 30 Aug 23:33:12 23:37:54 50° 117° (ESE) 23:42:33 436.795
Oscar 11 30 Aug 23:35:17 23:35:33 10° 271° (W) 23:35:48 145.826/435.025
DX 1 30 Aug 23:35:58 23:37:28 12° 61° (ENE) 23:38:58 434.975-435.025
ANTELSAT 30 Aug 23:48:23 23:52:36 55° 100° (E) 23:56:46 437.575/2403.000
RS-15 30 Aug 23:50:33 23:56:58 17° 96° (E) 00:03:31 29.354- 29.394
AUBIESAT-1 30 Aug 23:54:16 23:58:55 89° 263° (W) 00:03:32 437.475
M-CUBED/EXP-1 PRIME 31 Aug 00:03:05 00:07:44 60° 254° (WSW) 00:12:22 437.505
CUSAT 1 31 Aug 00:05:46 00:08:49 75° 98° (E) 00:12:44 437.405
UKube-1 31 Aug 00:07:48 00:10:54 19° 65° (ENE) 00:14:01 .
GONETS M04 31 Aug 00:14:37 00:23:31 82° 265° (W) 00:32:20
JAS-2 31 Aug 00:14:53 00:18:47 15° 89° (E) 00:22:51 435.910
AISAT 31 Aug 00:16:48 00:21:04 47° 72° (ENE) 00:25:23 437.250
TIGRISAT 31 Aug 00:18:18 00:22:34 71° 284° (WNW) 00:26:46 435.000
ESTCUBE 1 31 Aug 00:23:05 00:27:34 83° 259° (W) 00:32:06 437.505/2401.250
HUMSAT D 31 Aug 00:24:29 00:26:22 13° 269° (W) 00:28:13 437.325/437.525
PHONESAT 2.4 31 Aug 00:32:37 00:34:11 13° 149° (SSE) 00:35:43 2401.200-2431.200
QB50P1 31 Aug 00:37:54 00:41:29 27° 96° (E) 00:45:02 145.935-145.965
POPSAT HIP 1 31 Aug 00:48:04 00:51:55 34° 97° (E) 00:55:44 437.405
UNISAT 6 31 Aug 00:48:32 00:52:18 31° 291° (WNW) 00:56:03 437.425
Cosmos 2499 31 Aug 00:49:45 00:56:37 57° 268° (W) 01:03:38 435.465 / 435.565
50 SAT 31 Aug 00:51:20 00:54:53 69° 258° (WSW) 00:58:28 437.505
CUBEBUG 1 31 Aug 00:56:22 01:00:41 54° 260° (W) 01:05:03 437.445
SPROUT 31 Aug 00:57:08 01:01:23 62° 75° (ENE) 01:05:39 437.525
O/OREOS (USA 219) 31 Aug 00:59:03 01:03:04 30° 256° (WSW) 01:07:04 437.305
VELOX 1 31 Aug 01:03:41 01:08:02 56° 259° (W) 01:12:26 145.980
TISAT 1 31 Aug 01:04:52 01:07:36 17° 65° (ENE) 01:10:19 437.305
DX 1 31 Aug 01:08:41 01:13:02 72° 257° (WSW) 01:17:27 434.975-435.025
DUCHIFAT 1 31 Aug 01:11:16 01:15:24 56° 100° (E) 01:19:29 145.980
SO-50 31 Aug 01:14:41 01:18:37 24° 315° (NW) 01:22:32 436.795
QB50P2 31 Aug 01:19:09 01:23:23 86° 100° (E) 01:27:35 145.880/145.840
POLYITAN 1 31 Aug 01:21:39 01:25:52 87° 96° (E) 01:30:04 437.675
ANTELSAT 31 Aug 01:26:44 01:28:50 14° 297° (WNW) 01:30:56 437.575/2403.000
NANOSAT C BR1 31 Aug 01:26:50 01:31:04 87° 281° (W) 01:35:15 145.865
DANDE 31 Aug 01:37:54 01:39:56 20° 289° (WNW) 01:42:13 436.750
UKube-1 31 Aug 01:42:38 01:46:40 38° 262° (W) 01:50:44 .
ITUPSAT 1 31 Aug 01:50:39 01:52:12 11° 60° (ENE) 01:53:44 437.325
BUGSAT 1 31 Aug 01:51:32 01:55:39 68° 102° (ESE) 01:59:40 437.445
AISAT 31 Aug 01:55:02 01:57:47 16° 268° (W) 02:00:33 437.250
RS-15 31 Aug 01:55:40 02:07:06 75° 117° (ESE) 02:19:11 29.354- 29.394
JAS-2 31 Aug 01:57:27 02:04:29 84° 104° (ESE) 02:12:12 435.910
PHONESAT 2.4 31 Aug 02:07:10 02:10:05 48° 165° (SSE) 02:13:00 2401.200-2431.200
QB50P1 31 Aug 02:13:42 02:17:10 25° 292° (WNW) 02:20:36 145.935-145.965
GONETS M04 31 Aug 02:14:12 02:18:50 16° 285° (WNW) 02:23:27
SWISSCUBE 31 Aug 02:19:03 02:22:53 25° 66° (ENE) 02:26:42 437.505
POPSAT HIP 1 31 Aug 02:24:22 02:27:29 20° 294° (WNW) 02:30:34 437.405
BEESAT 31 Aug 02:35:19 02:39:30 32° 68° (ENE) 02:43:43 436.000
SPROUT 31 Aug 02:36:17 02:37:43 11° 270° (W) 02:39:09 437.525
TISAT 1 31 Aug 02:38:50 02:42:53 43° 261° (W) 02:46:58 437.305
DUCHIFAT 1 31 Aug 02:48:40 02:50:36 13° 297° (WNW) 02:52:31 145.980
Oscar 19 31 Aug 03:09:23 03:14:38 75° 103° (ESE) 03:19:48 437.125/150
Gurwin Techsat 1B 31 Aug 03:10:04 03:14:55 35° 97° (E) 03:19:44 435.225
KKS-1 31 Aug 03:23:46 03:25:07 11° 61° (ENE) 03:26:27 437.445
ITUPSAT 1 31 Aug 03:24:34 03:29:20 84° 260° (W) 03:34:07 437.325
BUGSAT 1 31 Aug 03:29:30 03:30:25 11° 298° (WNW) 03:31:20 437.445
PHONESAT 2.4 31 Aug 03:43:21 03:46:21 81° 179° (S) 03:49:20 2401.200-2431.200
JAS-2 31 Aug 03:44:00 03:48:49 21° 300° (WNW) 03:53:57 435.910
STARS 31 Aug 03:50:23 03:50:50 10° 60° (ENE) 03:51:18 437.465
AO-7 31 Aug 03:51:19 03:56:07 16° 90° (E) 04:00:54 29.400- 29.500
MOZHAYETS 4 31 Aug 03:53:29 03:57:22 28° 69° (ENE) 04:01:15
SWISSCUBE 31 Aug 03:56:09 04:00:29 35° 262° (W) 04:04:51 437.505
Cosmos 2491 31 Aug 03:57:15 04:00:52 13° 56° (NE) 04:04:28 435.465 / 435.565
RS-15 31 Aug 04:09:56 04:20:43 40° 323° (NW) 04:32:02 29.354- 29.394
BEESAT 31 Aug 04:13:16 04:17:16 27° 264° (W) 04:21:17 436.000
ITAMSAT 1 31 Aug 04:31:41 04:36:49 60° 101° (ESE) 04:41:56 435.822/435.867
Gurwin Techsat 1B 31 Aug 04:50:11 04:54:45 30° 294° (WNW) 04:59:18 435.225
Oscar 19 31 Aug 04:50:29 04:53:17 15° 300° (WNW) 04:56:05 437.125/150
KKS-1 31 Aug 04:56:32 05:01:01 78° 257° (WSW) 05:05:32 437.445
AO-85 31 Aug 05:11:38 05:16:45 49° 117° (ESE) 05:21:36 145.980
YUBILEINY 31 Aug 05:12:12 05:16:09 14° 74° (ENE) 05:20:05 435.215
PHONESAT 2.4 31 Aug 05:19:42 05:22:33 41° 198° (SSW) 05:25:25 2401.200-2431.200
STARS 31 Aug 05:22:04 05:26:30 85° 254° (WSW) 05:30:57 437.465
CUBESAT XI-V 31 Aug 05:23:27 05:27:30 32° 69° (ENE) 05:31:37 437.345
MOZHAYETS 4 31 Aug 05:30:35 05:34:28 27° 265° (W) 05:38:22
AO-7 31 Aug 05:41:37 05:49:59 85° 108° (ESE) 05:58:17 29.400- 29.500
Cosmos 2491 31 Aug 05:50:53 05:59:42 65° 79° (E) 06:08:27 435.465 / 435.565
HORYU 2 31 Aug 06:10:08 06:13:59 29° 97° (E) 06:17:48 437.375
ITAMSAT 1 31 Aug 06:12:23 06:15:48 18° 298° (WNW) 06:19:13 435.822/435.867
